Location: George Washington National Forest Helicopter Landing Site
(38.6463°N, 79.0851°W)
Time: 04:52:29
(UTC-04:00)

deb Explorer IX - All Passes

Search period start: 24 August 2019 00:00
Search period end: 03 September 2019 00:00
Orbit: 540 x 1110 km, 38.8° (Epoch: 23 August)

Date Brightness Start Highest point End Pass type
(mag) Time Alt. Az. Time Alt. Az. Time Alt. Az.
24 Aug - 11:27:57 10° S 11:31:17 17° SE 11:34:55 10° E daylight
24 Aug - 13:12:00 10° SW 13:17:30 54° SSE 13:23:57 10° E daylight
24 Aug - 14:58:30 10° W 15:04:43 90° S 15:11:52 10° E daylight
24 Aug - 16:45:35 10° W 16:52:19 81° SSW 16:59:41 10° ESE daylight
24 Aug - 18:32:58 10° W 18:39:36 43° SSW 18:46:28 10° SE daylight
24 Aug - 20:22:36 10° WSW 20:26:09 14° SW 20:29:40 10° SSW visible
25 Aug - 11:06:05 10° S 11:09:15 16° SE 11:12:43 10° ESE daylight
25 Aug - 12:50:06 10° SW 12:55:27 54° SSE 13:01:44 10° E daylight
25 Aug - 14:36:33 10° W 14:42:37 90° NW 14:49:38 10° E daylight
25 Aug - 16:23:35 10° W 16:30:10 81° SSW 16:37:29 10° ESE daylight
25 Aug - 18:10:55 10° W 18:17:26 42° SSW 18:24:16 10° SE daylight
25 Aug - 20:00:36 10° WSW 20:04:00 14° SW 20:07:24 10° SSW daylight
26 Aug - 10:44:12 10° S 10:47:14 16° SE 10:50:31 10° ESE daylight
26 Aug - 12:28:12 10° SW 12:33:23 54° SSE 12:39:31 10° E daylight
26 Aug - 14:14:38 10° W 14:20:31 90° NW 14:27:25 10° E daylight
26 Aug - 16:01:36 10° W 16:08:02 80° SSW 16:15:16 10° ESE daylight
26 Aug - 17:48:53 10° W 17:55:17 41° SSW 18:02:03 10° SE daylight
26 Aug - 19:38:38 10° WSW 19:41:51 13° SW 19:45:05 10° SSW daylight
27 Aug - 10:22:20 10° S 10:25:13 16° SE 10:28:20 10° ESE daylight
27 Aug - 12:06:20 10° SW 12:11:22 54° SSE 12:17:18 10° E daylight
27 Aug - 13:52:44 10° W 13:58:27 89° NNW 14:05:11 10° E daylight
27 Aug - 15:39:38 10° W 15:45:54 79° SSW 15:53:02 10° ESE daylight
27 Aug - 17:26:52 10° W 17:33:06 40° SSW 17:39:50 10° SE daylight
27 Aug - 19:16:41 10° WSW 19:19:41 13° SW 19:22:43 10° SSW daylight
28 Aug - 10:00:28 10° S 10:03:12 15° SE 10:06:10 10° ESE daylight
28 Aug - 11:44:27 10° SW 11:49:20 54° SSE 11:55:07 10° E daylight
28 Aug - 13:30:50 10° W 13:36:23 89° NNW 13:42:57 10° E daylight
28 Aug - 15:17:41 10° W 15:23:48 78° SSW 15:30:49 10° ESE daylight
28 Aug - 17:04:52 10° W 17:10:58 39° SSW 17:17:35 10° SE daylight
28 Aug - 18:54:49 10° WSW 18:57:32 12° SW 19:00:19 10° SSW daylight
29 Aug - 09:38:36 10° S 09:41:13 15° SE 09:44:00 10° ESE daylight
29 Aug - 11:22:35 10° SW 11:27:19 53° SSE 11:32:55 10° E daylight
29 Aug - 13:08:57 10° W 13:14:20 89° N 13:20:44 10° E daylight
29 Aug - 14:55:44 10° W 15:01:41 78° SSW 15:08:34 10° ESE daylight
29 Aug - 16:42:54 10° W 16:48:48 38° SSW 16:55:19 10° SE daylight
29 Aug - 18:33:00 10° WSW 18:35:23 12° SW 18:37:49 10° SSW daylight
30 Aug - 09:16:43 10° S 09:19:13 15° SE 09:21:53 10° ESE daylight
30 Aug - 11:00:44 10° SW 11:05:19 53° SSE 11:10:44 10° E daylight
30 Aug - 12:47:04 10° W 12:52:17 89° N 12:58:31 10° E daylight
30 Aug - 14:33:49 10° W 14:39:35 77° SSW 14:46:19 10° ESE daylight
30 Aug - 16:20:56 10° W 16:26:40 37° SSW 16:33:02 10° SE daylight
30 Aug - 18:11:18 10° WSW 18:13:15 11° SW 18:15:13 10° SSW daylight
31 Aug - 08:54:50 10° S 08:57:14 14° SE 08:59:46 10° ESE daylight
31 Aug - 10:38:52 10° SW 10:43:20 53° SSE 10:48:34 10° E daylight
31 Aug - 12:25:12 10° W 12:30:15 88° N 12:36:18 10° E daylight
31 Aug - 14:11:55 10° W 14:17:30 76° SSW 14:24:05 10° ESE daylight
31 Aug - 15:58:59 10° W 16:04:32 36° SSW 16:10:45 10° SE daylight
31 Aug - 17:49:48 10° SW 17:51:06 11° SW 17:52:26 10° SSW daylight
01 Sep - 08:32:56 10° S 08:35:14 14° SE 08:37:41 10° ESE daylight
01 Sep - 10:17:00 10° SW 10:21:21 53° SSE 10:26:24 10° E daylight
01 Sep - 12:03:20 10° W 12:08:14 88° N 12:14:05 10° E daylight
01 Sep - 13:50:01 10° W 13:55:26 74° SSW 14:01:50 10° ESE daylight
01 Sep - 15:37:04 10° W 15:42:25 34° SSW 15:48:27 10° SSE daylight
02 Sep - 08:11:01 10° S 08:13:15 14° SE 08:15:37 10° ESE daylight
02 Sep - 09:55:08 10° SW 09:59:22 53° SSE 10:04:16 10° E daylight
02 Sep - 11:41:28 10° W 11:46:14 88° N 11:51:53 10° E daylight
02 Sep - 13:28:07 10° W 13:33:22 73° SSW 13:39:35 10° ESE daylight
02 Sep - 15:15:09 10° W 15:20:19 33° SSW 15:26:09 10° SSE daylight
